Gakona, AK

8:56 AM AKST on February 08, 2016 (GMT -0900)
Gulkana

Weather History for PAGK - August, 2014

Change the Weather History Date:

Thursday, August 7, 2014

  Actual Average Record
Temperature  
Mean Temperature 48 °F -  
Max Temperature 63 °F 65 °F 82 °F (2004)
Min Temperature 33 °F 45 °F 30 °F (2000)
Degree Days  
Heating Degree Days 17    
Moisture  
Dew Point 40 °F    
Average Humidity 65    
Maximum Humidity 93    
Minimum Humidity 41    
Precipitation  
Precipitation 0.00 in - - ()
Sea Level Pressure  
Sea Level Pressure 29.86 in    
Wind  
Wind Speed 9 mph (SSE)    
Max Wind Speed 23 mph    
Max Gust Speed 29 mph    
Visibility 10 miles    
Events      
Averages and records for this station are not official NWS values.
T = Trace of Precipitation, MM = Missing Value Source: NWS Daily Summary

Daily Weather History Graph

Daily Weather History Graph

Search for Another Location

Airport or City:

Trip Planner

Search our weather history database for the weather conditions in past years. The results will help you decide how hot, cold, wet, or windy it might be!

Date:

Astronomy

Aug. 07, 2014 Rise Set
Actual Time 5:23 AM AKDT 10:09 PM AKDT
Civil Twilight 4:19 AM AKDT 11:12 PM AKDT
Nautical Twilight 2:20 AM AKDT 1:15 AM AKDT
Astronomical Twilight Sun does not rise Sun does not rise
Moon 7:48 PM AKDT (8/7) 1:46 AM AKDT (8/7)
Length of Visible Light 18h 53m
Length of Day
16h 45m
Waxing Gibbous, 88% of the Moon is Illuminated
Aug 7
Waxing Gibbous
Aug 10
Full
Aug 17
Last Quarter
Aug 25
New
Sep 2
First Quarter

Hourly Weather History & Observations

Time (AKDT) Temp. Windchill Dew Point Humidity Pressure Visibility Wind Dir Wind Speed Gust Speed Precip Events Conditions
12:53 AM 48.0 °F - 42.1 °F 80% 29.93 in 10.0 mi SSE 8.1 mph - N/A   Clear
1:53 AM 46.0 °F 41.9 °F 41.0 °F 83% 29.93 in 10.0 mi South 8.1 mph - N/A   Clear
2:53 AM 45.0 °F 42.6 °F 39.9 °F 82% 29.93 in 10.0 mi SSW 4.6 mph - N/A   Clear
3:53 AM 41.0 °F 38.0 °F 37.9 °F 89% 29.93 in 10.0 mi SSW 4.6 mph - N/A   Clear
4:53 AM 36.0 °F 33.3 °F 34.0 °F 93% 29.92 in 10.0 mi WSW 3.5 mph - N/A   Clear
5:53 AM 34.0 °F - 32.0 °F 92% 29.92 in 10.0 mi Calm Calm - N/A   Clear
6:53 AM 39.9 °F 37.8 °F 37.9 °F 93% 29.90 in 10.0 mi SSW 3.5 mph - N/A   Partly Cloudy
7:53 AM 46.9 °F - 43.0 °F 86% 29.89 in 10.0 mi Calm Calm - N/A   Clear
8:53 AM 53.1 °F - 44.1 °F 71% 29.88 in 10.0 mi SSE 8.1 mph - N/A   Partly Cloudy
9:53 AM 57.0 °F - 43.0 °F 59% 29.86 in 10.0 mi SSE 16.1 mph 23.0 mph N/A   Partly Cloudy
10:53 AM 59.0 °F - 43.0 °F 55% 29.84 in 10.0 mi SE 13.8 mph 23.0 mph N/A   Unknown
11:53 AM 61.0 °F - 41.0 °F 48% 29.83 in 10.0 mi SE 15.0 mph 23.0 mph N/A   Clear
12:53 PM 62.1 °F - 41.0 °F 46% 29.82 in 10.0 mi SSE 17.3 mph 27.6 mph N/A   Clear
4:53 PM 61.0 °F - 41.0 °F 48% 29.82 in 10.0 mi SSE 17.3 mph 25.3 mph N/A   Unknown
5:53 PM 62.1 °F - 39.9 °F 44% 29.81 in 10.0 mi SSE 23.0 mph 28.8 mph N/A   Clear
6:53 PM 61.0 °F - 41.0 °F 48% 29.81 in 10.0 mi SSE 16.1 mph 25.3 mph N/A   Clear
7:53 PM 60.1 °F - 39.9 °F 47% 29.81 in 10.0 mi SSE 17.3 mph 21.9 mph N/A   Clear
8:53 PM 57.9 °F - 39.0 °F 49% 29.80 in 10.0 mi SSE 19.6 mph 25.3 mph N/A   Clear
9:53 PM 55.9 °F - 39.0 °F 53% 29.80 in 10.0 mi SSE 10.4 mph - N/A   Partly Cloudy
10:53 PM 55.0 °F - 39.0 °F 55% 29.79 in 10.0 mi SSE 13.8 mph - N/A   Scattered Clouds
11:53 PM 54.0 °F - 39.0 °F 57% 29.80 in 10.0 mi SSE 10.4 mph - N/A   Overcast